Overview Statistics Trail Chart Weather Telemetry Raw packets
 

This is the latest recevied weather packets stored in our database for station/object R2AKT-13. If no packets are shown the sender has not sent any weather packets the latest 10 day(s).

<< 59 60 61 62 63 64 >>
Time Temp. Humidity Pressure Rain* Wind** Luminosity Snow
1787896561 15° C 73% 1002.4 hPa - 0.45 m/s, 209° - -
1787895999 15° C 74% 1002.3 hPa - 0 m/s - -
1787895484 14.44° C 75% 1002.3 hPa - 0.45 m/s, 186° - -
1787894966 14.44° C 75% 1002.2 hPa - 0 m/s - -
1787894381 13.89° C 76% 1002.2 hPa - 0.45 m/s, 201° - -
1787893866 13.33° C 78% 1002.2 hPa - 0.45 m/s, 98° - -
1787893286 13.33° C 77% 1002.2 hPa - 0.45 m/s, 244° - -
1787892701 12.78° C 78% 1002.3 hPa - 0.45 m/s, 280° - -
1787892141 12.78° C 80% 1002.2 hPa - 0.45 m/s, 255° - -
1787891546 12.22° C 81% 1002.3 hPa - 0.45 m/s, 269° - -
1787890981 11.67° C 82% 1002.2 hPa - 1.34 m/s, 235° - -
1787890466 11.67° C 82% 1002.2 hPa - 0.45 m/s, 264° - -
1787889878 11.67° C 83% 1002.1 hPa - 0.89 m/s, 290° - -
1787889284 11.11° C 83% 1002.1 hPa - 0.89 m/s, 271° - -
1787888776 11.11° C 83% 1002.1 hPa - 0.45 m/s, 192° - -
1787888271 11.11° C 83% 1002.1 hPa - 0.45 m/s, 204° - -
1787887706 11.11° C 83% 1002 hPa - 0.45 m/s, 272° - -
1787887181 11.11° C 83% 1002 hPa - 0.89 m/s, 304° - -
1787886681 11.11° C 83% 1002 hPa - 1.34 m/s, 321° - -
1787886151 11.11° C 83% 1001.9 hPa - 0.89 m/s, 277° - -
1787885656 11.11° C 82% 1001.8 hPa - 0.89 m/s, 295° - -
1787885171 11.67° C 81% 1001.8 hPa - 0.89 m/s, 334° - -
1787884586 11.11° C 81% 1001.7 hPa - 0.89 m/s, 291° - -
1787884071 11.67° C 81% 1001.7 hPa - 0.89 m/s, 330° - -
1787883481 11.11° C 81% 1001.6 hPa - 1.34 m/s, 333° - -

* Rain since midnight (hover to see other rain measurements)
** Current wind speed in m/s (hover to see current wind gust speed)